CW1490 Weather Reports


time (UTC)temp
F
wind
direction
speed
knots
gust
knots
rain 1hr
in
rain 24hr
in
rain mn
in
humidity
%
barometer
mb
20260505180507 81 221 15.6 26.1 0.00 0.00 0.00 38 1005.2
20260505180034 81 141 13.0 26.1 0.00 0.00 0.00 38 1005.2
20260505175503 82 207 16.5 26.9 0.00 0.00 0.00 38 1005.2
20260505175007 82 207 13.9 31.3 0.00 0.00 0.00 38 1005.2
20260505174512 82 246 16.5 33.0 0.00 0.00 0.00 38 1005.2
20260505174011 82 214 15.6 33.0 0.00 0.00 0.00 38 1005.4
20260505173510 82 137 9.6 20.9 0.00 0.00 0.00 39 1005.3
20260505173031 82 198 13.9 23.5 0.00 0.00 0.00 38 1005.4
20260505172509 81 247 13.0 28.7 0.00 0.00 0.00 38 1005.5
20260505172008 82 224 18.2 28.7 0.00 0.00 0.00 38 1005.5
20260505171521 82 221 13.9 26.9 0.00 0.00 0.00 38 1005.6
20260505171007 82 153 16.5 26.9 0.00 0.00 0.00 37 1005.7
20260505170510 82 171 13.9 26.9 0.00 0.00 0.00 38 1005.5
20260505170024 82 196 12.2 22.6 0.00 0.00 0.00 38 1005.5
20260505165507 81 223 13.9 22.6 0.00 0.00 0.00 39 1005.6
20260505165011 80 173 9.6 22.6 0.00 0.00 0.00 41 1005.7
20260505164526 80 158 8.7 22.6 0.00 0.00 0.00 41 1005.9
20260505164009 81 207 7.8 22.6 0.00 0.00 0.00 42 1005.9
20260505163504 80 229 13.9 22.6 0.00 0.00 0.00 41 1006.0
20260505163028 80 221 9.6 22.6 0.00 0.00 0.00 42 1006.1
20260505162504 80 200 12.2 23.5 0.00 0.00 0.00 43 1006.2
20260505162007 80 209 13.0 23.5 0.00 0.00 0.00 43 1006.3
20260505161520 79 146 7.0 16.5 0.00 0.00 0.00 43 1006.1
20260505161007 79 142 9.6 21.7 0.00 0.00 0.00 43 1006.4
20260505160507 80 219 11.3 21.7 0.00 0.00 0.00 42 1006.6
20260505153027 76 153 10.4 20.9 0.00 0.00 0.00 44 1007.4
20260505152509 76 218 7.8 21.7 0.00 0.00 0.00 45 1007.6
20260505152008 75 231 12.2 21.7 0.00 0.00 0.00 46 1007.7
20260505151527 75 205 7.8 21.7 0.00 0.00 0.00 47 1007.8
20260505151009 75 223 13.9 21.7 0.00 0.00 0.00 47 1007.8
20260505150503 74 221 10.4 19.1 0.00 0.00 0.00 47 1008.0
20260505140507 66 225 7.8 12.2 0.00 0.00 0.00 60 1008.8
20260505125008 59 232 5.2 13.9 0.00 0.00 0.00 67 1009.0
20260505124532 59 202 5.2 13.9 0.00 0.00 0.00 70 1009.1
20260505124009 59 236 7.0 13.9 0.00 0.00 0.00 70 1009.0
20260505123504 58 219 7.0 13.9 0.00 0.00 0.00 71 1009.0
20260505123005 58 242 6.1 14.8 0.00 0.00 0.00 71 1009.0
20260505122504 57 221 8.7 14.8 0.00 0.00 0.00 72 1009.1
20260505122003 57 183 6.1 16.5 0.00 0.00 0.00 74 1009.0
20260505121524 57 223 8.7 16.5 0.00 0.00 0.00 73 1009.1
20260505121003 56 237 5.2 10.4 0.00 0.00 0.00 74 1009.2
20260505120503 55 188 5.2 9.6 0.00 0.00 0.00 74 1009.3
20260505120016 55 186 4.3 9.6 0.00 0.00 0.00 74 1009.2
20260505115506 55 200 5.2 10.4 0.00 0.00 0.00 74 1009.3
20260505115007 55 191 5.2 10.4 0.00 0.00 0.00 74 1009.4
20260505114517 55 234 6.1 10.4 0.00 0.00 0.00 75 1009.4
20260505114009 55 217 7.0 11.3 0.00 0.00 0.00 75 1009.3
20260505113509 55 203 3.5 11.3 0.00 0.00 0.00 75 1009.4
20260505113021 55 178 5.2 10.4 0.00 0.00 0.00 75 1009.4
20260505112511 55 207 4.3 13.9 0.00 0.00 0.00 76 1009.5
20260505112008 54 216 7.0 13.9 0.00 0.00 0.00 75 1009.5
20260505111510 54 218 6.1 10.4 0.00 0.00 0.00 76 1009.5
20260505111004 53 200 7.0 10.4 0.00 0.00 0.00 77 1009.4
20260505110504 53 196 4.3 8.7 0.00 0.00 0.00 77 1009.3
20260505102007 49 229 4.3 7.0 0.00 0.00 0.00 82 1008.8
20260505101523 49 232 3.5 6.1 0.00 0.00 0.00 82 1008.7
20260505101007 49 213 4.3 6.1 0.00 0.00 0.00 81 1008.6
20260505100507 49 238 2.6 5.2 0.00 0.00 0.00 81 1008.7
20260505100036 50 231 2.6 5.2 0.00 0.00 0.00 80 1008.7
20260505095505 50 221 2.6 4.3 0.00 0.00 0.00 80 1008.7
20260505095006 50 221 2.6 4.3 0.00 0.00 0.00 79 1008.8
20260505094515 51 210 1.7 7.0 0.00 0.00 0.00 78 1008.8
20260505094006 51 247 2.6 7.0 0.00 0.00 0.00 78 1008.8
20260505093506 51 236 4.3 7.0 0.00 0.00 0.00 77 1008.7
20260505093026 51 218 2.6 7.0 0.00 0.00 0.00 77 1008.7
20260505092507 51 224 3.5 7.0 0.00 0.00 0.00 77 1008.6
20260505092006 52 218 2.6 8.7 0.00 0.00 0.00 76 1008.6
20260505091528 52 231 3.5 8.7 0.00 0.00 0.00 76 1008.6
20260505091007 52 219 4.3 7.8 0.00 0.00 0.00 77 1008.7
20260505090510 52 207 3.5 8.7 0.00 0.00 0.00 77 1008.7
20260505090024 51 207 3.5 8.7 0.00 0.00 0.00 78 1008.8
20260505085508 51 282 1.7 7.0 0.00 0.00 0.00 77 1008.9
20260505085015 51 205 1.7 7.0 0.00 0.00 0.00 77 1008.9
20260505084528 51 224 2.6 6.1 0.00 0.00 0.00 78 1009.0
20260505084003 51 205 0.9 4.3 0.00 0.00 0.00 77 1009.1
20260505083504 51 195 1.7 7.8 0.00 0.00 0.00 76 1009.1
20260505083020 52 217 1.7 7.8 0.00 0.00 0.00 75 1009.0
20260505082504 52 221 1.7 7.0 0.00 0.00 0.00 74 1009.0
20260505082006 53 217 1.7 10.4 0.00 0.00 0.00 74 1008.9
20260505081522 52 200 2.6 10.4 0.00 0.00 0.00 74 1008.9
20260505081010 52 232 4.3 10.4 0.00 0.00 0.00 74 1008.8
20260505080508 52 215 4.3 10.4 0.00 0.00 0.00 74 1008.8
20260505080041 52 209 2.6 9.6 0.00 0.00 0.00 74 1008.7
20260505075507 52 205 2.6 11.3 0.00 0.00 0.00 73 1008.8
20260505075008 53 227 5.2 11.3 0.00 0.00 0.00 73 1008.7
20260505074528 53 232 4.3 10.4 0.00 0.00 0.00 73 1008.9
20260505074010 53 207 6.1 10.4 0.00 0.00 0.00 73 1008.9
20260505073508 53 232 5.2 9.6 0.00 0.00 0.00 73 1008.9
20260505073027 52 212 3.5 8.7 0.00 0.00 0.00 73 1008.9
20260505072511 53 236 4.3 9.6 0.00 0.00 0.00 72 1008.9
20260505072008 53 213 5.2 9.6 0.00 0.00 0.00 72 1008.9
20260505071522 53 211 3.5 8.7 0.00 0.00 0.00 72 1009.0
20260505071013 53 219 4.3 8.7 0.00 0.00 0.00 72 1009.0
20260505070511 53 229 3.5 7.8 0.00 0.00 0.00 72 1009.0
20260505070023 53 236 3.5 7.8 0.00 0.00 0.00 72 1009.0
20260505065507 53 238 3.5 8.7 0.00 0.00 0.00 72 1009.0
20260505065015 53 252 3.5 8.7 0.00 0.00 0.00 71 1009.0
20260505064527 53 243 3.5 9.6 0.00 0.00 0.00 71 1009.0
20260505064008 53 243 5.2 9.6 0.00 0.00 0.00 71 1009.0
20260505063511 53 221 3.5 9.6 0.00 0.00 0.00 70 1009.0
20260505063009 54 237 3.5 9.6 0.00 0.00 0.00 70 1009.0
20260505062504 54 229 5.2 9.6 0.00 0.00 0.00 70 1009.0
20260505062005 54 217 6.1 10.4 0.00 0.00 0.00 69 1009.1
20260505061512 54 193 5.2 10.4 0.00 0.00 0.00 69 1009.1
20260505061003 54 207 5.2 9.6 0.00 0.00 0.00 69 1009.2
20260505060507 54 190 6.1 9.6 0.00 0.00 0.00 68 1009.2
20260505060011 54 265 5.2 10.4 0.00 0.00 0.00 68 1009.3
20260505055503 54 232 6.1 10.4 0.00 0.00 0.00 68 1009.3
20260505055003 54 194 4.3 8.7 0.00 0.00 0.00 68 1009.4
20260505054505 55 216 4.3 9.6 0.00 0.00 0.00 67 1009.4
20260505054004 55 232 5.2 9.6 0.00 0.00 0.00 67 1009.3
20260505053503 54 205 5.2 10.4 0.00 0.00 0.00 67 1009.3
20260505053007 54 218 6.1 10.4 0.00 0.00 0.00 68 1009.3
20260505052503 54 223 3.5 7.0 0.00 0.00 0.00 68 1009.2
20260505052004 54 225 2.6 9.6 0.00 0.00 0.00 68 1009.3
20260505051522 54 173 2.6 9.6 0.00 0.00 0.00 67 1009.3
20260505051005 55 231 3.5 8.7 0.00 0.00 0.00 66 1009.4
20260505050503 55 212 1.7 5.2 0.00 0.00 0.00 65 1009.4
20260505041510 56 224 4.3 8.7 0.00 0.00 0.00 63 1009.2
20260505041006 57 227 4.3 8.7 0.00 0.00 0.00 62 1009.2
20260505040506 57 212 4.3 8.7 0.00 0.00 0.00 62 1009.2
20260505040016 57 191 3.5 8.7 0.00 0.00 0.00 62 1009.2
20260505035507 56 219 3.5 13.9 0.00 0.00 0.00 62 1009.1
20260505035007 57 207 3.5 13.9 0.00 0.00 0.00 61 1009.0
20260505034517 57 221 3.5 8.7 0.00 0.00 0.00 60 1008.9
20260505034006 58 218 4.3 9.6 0.00 0.00 0.00 60 1008.9
20260505033507 58 211 6.1 9.6 0.00 0.00 0.00 59 1008.9
20260505033023 58 207 6.1 9.6 0.00 0.00 0.00 60 1008.9
20260505032508 58 218 4.3 12.2 0.00 0.00 0.00 59 1008.9
20260505032007 59 227 4.3 13.0 0.00 0.00 0.00 58 1008.8
20260505031526 59 189 6.1 13.0 0.00 0.00 0.00 57 1008.7
20260505031003 59 213 7.0 15.6 0.00 0.00 0.00 57 1008.7
20260505030504 59 201 7.0 15.6 0.00 0.00 0.00 57 1008.7
20260505030012 59 209 8.7 13.9 0.00 0.00 0.00 56 1008.7
20260505025514 60 202 7.8 15.6 0.00 0.00 0.00 56 1008.7
20260505025007 60 223 7.8 14.8 0.00 0.00 0.00 56 1008.7
20260505024517 60 207 8.7 13.9 0.00 0.00 0.00 56 1008.7
20260505024010 60 211 6.1 10.4 0.00 0.00 0.00 56 1008.7
20260505023505 60 219 6.1 14.8 0.00 0.00 0.00 55 1008.7
20260505023022 60 217 7.8 14.8 0.00 0.00 0.00 55 1008.7
20260505022506 60 208 5.2 10.4 0.00 0.00 0.00 55 1008.7
20260505022010 60 219 5.2 13.9 0.00 0.00 0.00 54 1008.8
20260505021520 61 227 7.0 13.9 0.00 0.00 0.00 53 1008.7
20260505021006 61 213 7.8 13.9 0.00 0.00 0.00 53 1008.7
20260505020508 61 219 7.0 12.2 0.00 0.00 0.00 53 1008.7
20260505020023 61 218 7.0 15.6 0.00 0.00 0.00 52 1008.6
20260505015508 61 238 7.8 15.6 0.00 0.00 0.00 52 1008.5
20260505015005 60 182 7.8 14.8 0.00 0.00 0.00 54 1008.5
20260505014521 60 198 6.1 14.8 0.00 0.00 0.00 53 1008.5
20260505014007 59 216 7.0 12.2 0.00 0.00 0.00 55 1008.5
20260505013506 57 207 6.1 10.4 0.00 0.00 0.00 57 1008.5
20260505013020 56 196 5.2 9.6 0.00 0.00 0.00 60 1008.5
20260505012506 55 221 5.2 7.8 0.00 0.00 0.00 67 1008.4
20260505012010 55 219 5.2 7.8 0.00 0.00 0.00 67 1008.2
20260505011522 55 214 2.6 6.1 0.00 0.00 0.00 66 1008.1
20260505011006 56 218 3.5 7.0 0.00 0.00 0.00 65 1008.1
20260505010507 56 221 4.3 7.0 0.00 0.00 0.00 63 1008.1
20260505010023 57 195 3.5 6.1 0.00 0.00 0.00 60 1008.0
20260505005508 58 212 3.5 6.1 0.00 0.00 0.00 60 1007.9
20260505005008 58 218 3.5 5.2 0.00 0.00 0.00 59 1007.9
20260505004522 59 198 2.6 6.1 0.00 0.00 0.00 58 1007.8
20260505004008 59 218 3.5 6.1 0.00 0.00 0.00 54 1007.8
20260505003503 60 216 3.5 7.0 0.00 0.00 0.00 55 1007.7
20260505003019 61 216 3.5 7.0 0.00 0.00 0.00 52 1007.6
20260505002508 62 193 3.5 7.0 0.00 0.00 0.00 50 1007.5
20260505002008 62 236 4.3 6.1 0.00 0.00 0.00 50 1007.5
20260505001524 62 242 3.5 6.1 0.00 0.00 0.00 50 1007.4
20260505001007 63 218 3.5 7.8 0.00 0.00 0.00 51 1007.4
20260505000506 64 202 5.2 7.8 0.00 0.00 0.00 47 1007.3
20260505000031 64 221 4.3 8.7 0.00 0.00 0.00 46 1007.2
20260504235507 64 215 5.2 8.7 0.00 0.00 0.00 44 1007.1
20260504235009 65 218 4.3 7.0 0.00 0.00 0.00 45 1007.0
20260504234524 65 213 3.5 7.0 0.00 0.00 0.00 43 1006.8
20260504234010 65 213 3.5 7.0 0.00 0.00 0.00 42 1006.8
20260504233507 66 221 3.5 7.0 0.00 0.00 0.00 41 1006.7
20260504233025 67 218 3.5 7.8 0.00 0.00 0.00 40 1006.6
20260504232510 67 200 4.3 7.8 0.00 0.00 0.00 40 1006.5
20260504232010 68 201 2.6 7.8 0.00 0.00 0.00 39 1006.4
20260504231522 68 223 3.5 10.4 0.00 0.00 0.00 38 1006.3
20260504231007 69 223 6.1 10.4 0.00 0.00 0.00 37 1006.3
20260504230507 69 207 7.0 10.4 0.00 0.00 0.00 36 1006.3
20260504230024 69 219 6.1 11.3 0.00 0.00 0.00 36 1006.3
20260504225510 69 218 5.2 12.2 0.00 0.00 0.00 37 1006.2
20260504225009 69 221 6.1 12.2 0.00 0.00 0.00 35 1006.1
20260504224528 70 245 6.1 13.9 0.00 0.00 0.00 35 1006.1
20260504224009 70 221 7.0 14.8 0.00 0.00 0.00 34 1006.0
20260504223509 70 250 5.2 14.8 0.00 0.00 0.00 35 1005.9
20260504223025 70 201 2.6 13.9 0.00 0.00 0.00 36 1006.0
20260504222509 70 234 7.0 20.9 0.00 0.00 0.00 36 1006.0
20260504222008 70 249 7.8 20.9 0.00 0.00 0.00 36 1005.9
20260504221528 70 249 8.7 17.4 0.00 0.00 0.00 34 1005.8
20260504221011 70 245 8.7 16.5 0.00 0.00 0.00 35 1005.9
20260504220509 70 219 11.3 16.5 0.00 0.00 0.00 34 1005.9
20260504220024 70 244 6.1 13.9 0.00 0.00 0.00 34 1005.8
20260504215510 70 223 6.1 14.8 0.00 0.00 0.00 35 1005.8
20260504215009 71 202 5.2 19.1 0.00 0.00 0.00 34 1005.9
20260504214537 71 205 11.3 19.1 0.00 0.00 0.00 35 1005.9
20260504214012 70 231 6.1 17.4 0.00 0.00 0.00 35 1006.0
20260504213509 70 198 6.1 19.1 0.00 0.00 0.00 37 1006.1
20260504213010 70 215 10.4 20.9 0.00 0.00 0.00 34 1006.0
20260504212502 70 270 11.3 20.0 0.00 0.00 0.00 34 1006.1
20260504212005 70 189 8.7 17.4 0.00 0.00 0.00 33 1006.1
20260504211512 71 227 10.4 16.5 0.00 0.00 0.00 34 1006.1
20260504211001 71 219 9.6 16.5 0.00 0.00 0.00 34 1006.1
20260504210503 71 221 7.0 19.1 0.00 0.00 0.00 35 1006.1
20260504210007 71 232 9.6 21.7 0.00 0.00 0.00 35 1006.2
20260504205503 71 227 14.8 21.7 0.00 0.00 0.00 35 1006.1
20260504205004 71 245 6.1 21.7 0.00 0.00 0.00 35 1006.2
20260504204505 71 223 10.4 20.9 0.00 0.00 0.00 34 1006.2
20260504204004 71 210 5.2 11.3 0.00 0.00 0.00 37 1006.2
20260504203502 70 288 4.3 16.5 0.00 0.00 0.00 37 1006.3
20260504203007 70 225 7.0 16.5 0.00 0.00 0.00 36 1006.4
20260504202511 70 259 8.7 20.9 0.00 0.00 0.00 34 1006.4
20260504202004 70 215 8.7 23.5 0.00 0.00 0.00 35 1006.4
20260504201525 70 225 7.0 29.5 0.00 0.00 0.00 33 1006.3
20260504201003 71 236 17.4 29.5 0.00 0.00 0.00 33 1006.3
20260504200508 71 229 7.8 28.7 0.00 0.00 0.00 35 1006.4
20260504200005 71 269 5.2 30.4 0.00 0.00 0.00 37 1006.4
20260504195503 71 186 14.8 30.4 0.00 0.00 0.00 34 1006.2
20260504195007 70 203 10.4 19.1 0.00 0.00 0.00 35 1006.4
20260504194520 70 207 8.7 19.1 0.00 0.00 0.00 35 1006.5
20260504194003 70 257 1.7 22.6 0.00 0.00 0.00 38 1006.5
20260504193506 70 229 7.8 22.6 0.00 0.00 0.00 33 1006.5
20260504193003 70 227 9.6 20.0 0.00 0.00 0.00 36 1006.6
20260504192503 69 267 4.3 18.2 0.00 0.00 0.00 35 1006.6
20260504192007 69 156 5.2 20.9 0.00 0.00 0.00 35 1006.5
20260504191507 70 227 11.3 27.8 0.00 0.00 0.00 34 1006.7
20260504191006 70 221 10.4 27.8 0.00 0.00 0.00 36 1006.5
20260504190508 70 219 9.6 27.8 0.00 0.00 0.00 35 1006.6
20260504190015 70 198 18.2 27.8 0.00 0.00 0.00 35 1006.6
20260504185507 69 207 15.6 25.2 0.00 0.00 0.00 36 1006.6
20260504185002 69 229 13.0 25.2 0.00 0.00 0.00 34 1006.8
20260504184503 69 243 10.4 25.2 0.00 0.00 0.00 35 1006.9
20260504184003 70 232 13.0 22.6 0.00 0.00 0.00 34 1006.8
20260504183501 70 255 5.2 21.7 0.00 0.00 0.00 36 1006.9
20260504183007 70 188 8.7 20.0 0.00 0.00 0.00 35 1006.8
20260504182503 71 196 8.7 30.4 0.00 0.00 0.00 34 1006.8
20260504182013 71 237 20.0 30.4 0.00 0.00 0.00 35 1006.8
20260504181508 70 189 3.5 25.2 0.00 0.00 0.00 39 1006.8
20260504181004 70 250 18.2 25.2 0.00 0.00 0.00 33 1007.0